Time,TemperatureF,DewpointF,PressureIn,WindDirection,WindDirectionDegrees,WindSpeedMPH,WindSpeedGustMPH,Humidity,HourlyPrecipIn,Conditions,Clouds,dailyrainin,SoftwareType,DateUTC
2013-04-28 00:00:00,58.8,52.3,29.74,SW,225,0.0,0.0,79,0.00,,,0.00,WUHU21623XXSP,2013-04-28 04:00:00,
2013-04-28 00:01:00,58.8,52.3,29.75,SSE,157,0.0,0.0,79,0.00,,,0.00,WUHU21623XXSP,2013-04-28 04:01:00,
2013-04-28 00:06:00,58.6,52.2,29.75,SSW,202,0.0,0.0,79,0.00,,,0.00,WUHU21623XXSP,2013-04-28 04:06:00,
2013-04-28 00:12:00,58.6,52.2,29.75,ESE,112,0.0,0.0,79,0.00,,,0.00,WUHU21623XXSP,2013-04-28 04:12:00,
2013-04-28 00:16:00,58.6,52.2,29.74,SSE,157,0.0,0.9,79,0.00,,,0.00,WUHU21623XXSP,2013-04-28 04:16:00,
2013-04-28 00:21:00,58.6,52.2,29.74,SSE,157,0.0,0.9,79,0.00,,,0.00,WUHU21623XXSP,2013-04-28 04:21:00,
2013-04-28 00:27:00,58.6,52.2,29.74,SSE,157,0.0,4.3,79,0.00,,,0.00,WUHU21623XXSP,2013-04-28 04:27:00,
2013-04-28 00:32:00,58.6,52.2,29.74,SE,135,0.0,4.3,79,0.00,,,0.00,WUHU21623XXSP,2013-04-28 04:32:00,
2013-04-28 00:37:00,58.3,51.8,29.73,SE,135,0.0,0.0,79,0.00,,,0.00,WUHU21623XXSP,2013-04-28 04:37:00,
2013-04-28 00:42:00,58.1,52.0,29.73,ESE,112,0.0,0.0,80,0.00,,,0.00,WUHU21623XXSP,2013-04-28 04:42:00,
2013-04-28 00:47:00,58.1,52.0,29.73,SSE,157,0.0,2.0,80,0.00,,,0.00,WUHU21623XXSP,2013-04-28 04:47:00,
2013-04-28 00:52:00,57.9,51.8,29.73,SSE,157,0.0,2.0,80,0.00,,,0.00,WUHU21623XXSP,2013-04-28 04:52:00,
2013-04-28 00:57:00,57.7,51.9,29.74,West,270,0.0,0.0,81,0.00,,,0.00,WUHU21623XXSP,2013-04-28 04:57:00,
2013-04-28 01:02:00,57.7,51.9,29.74,SE,135,0.0,0.0,81,0.00,,,0.00,WUHU21623XXSP,2013-04-28 05:02:00,
2013-04-28 01:07:00,57.6,51.8,29.73,SE,135,0.0,0.0,81,0.00,,,0.00,WUHU21623XXSP,2013-04-28 05:07:00,
2013-04-28 01:12:00,57.4,51.6,29.73,SSW,202,0.0,0.0,81,0.00,,,0.00,WUHU21623XXSP,2013-04-28 05:12:00,
2013-04-28 01:17:00,57.4,51.6,29.73,SSE,157,0.0,0.0,81,0.00,,,0.00,WUHU21623XXSP,2013-04-28 05:17:00,
2013-04-28 01:22:00,57.4,51.6,29.73,SE,135,0.0,0.0,81,0.00,,,0.00,WUHU21623XXSP,2013-04-28 05:22:00,
2013-04-28 01:27:00,57.4,51.6,29.73,SSE,157,0.0,0.0,81,0.00,,,0.00,WUHU21623XXSP,2013-04-28 05:27:00,
2013-04-28 01:32:00,57.2,51.7,29.72,SE,135,0.0,0.0,82,0.00,,,0.00,WUHU21623XXSP,2013-04-28 05:32:00,
2013-04-28 01:37:00,57.0,51.5,29.72,ESE,112,0.0,0.0,82,0.00,,,0.00,WUHU21623XXSP,2013-04-28 05:37:00,
2013-04-28 01:42:00,57.0,51.5,29.72,SE,135,0.0,0.0,82,0.00,,,0.00,WUHU21623XXSP,2013-04-28 05:42:00,
2013-04-28 01:47:00,57.0,51.5,29.72,SE,135,0.0,0.0,82,0.00,,,0.00,WUHU21623XXSP,2013-04-28 05:47:00,
2013-04-28 01:52:00,57.0,51.5,29.72,South,180,0.0,2.0,82,0.00,,,0.00,WUHU21623XXSP,2013-04-28 05:52:00,
2013-04-28 01:57:00,57.0,51.5,29.71,SSE,157,0.0,2.0,82,0.00,,,0.00,WUHU21623XXSP,2013-04-28 05:57:00,
2013-04-28 02:02:00,57.2,51.7,29.71,ESE,112,0.0,1.1,82,0.00,,,0.00,WUHU21623XXSP,2013-04-28 06:02:00,
2013-04-28 02:07:00,57.4,51.6,29.71,SSE,157,0.0,1.1,81,0.00,,,0.00,WUHU21623XXSP,2013-04-28 06:07:00,
2013-04-28 02:12:00,57.6,51.8,29.71,SE,135,0.0,0.0,81,0.00,,,0.00,WUHU21623XXSP,2013-04-28 06:12:00,
2013-04-28 02:17:00,57.6,51.4,29.71,SE,135,0.0,0.0,80,0.00,,,0.00,WUHU21623XXSP,2013-04-28 06:17:00,
2013-04-28 02:22:00,57.7,51.3,29.72,South,180,0.0,0.0,79,0.00,,,0.00,WUHU21623XXSP,2013-04-28 06:22:00,
2013-04-28 02:27:00,57.7,51.3,29.72,South,180,0.0,0.0,79,0.00,,,0.00,WUHU21623XXSP,2013-04-28 06:27:00,
2013-04-28 02:32:00,57.7,51.3,29.72,SSE,157,0.0,0.0,79,0.00,,,0.00,WUHU21623XXSP,2013-04-28 06:32:00,
2013-04-28 02:37:00,57.9,51.1,29.71,SSE,157,0.0,0.0,78,0.00,,,0.00,WUHU21623XXSP,2013-04-28 06:37:00,
2013-04-28 02:42:00,57.7,50.9,29.72,SSE,157,0.0,0.0,78,0.00,,,0.00,WUHU21623XXSP,2013-04-28 06:42:00,
2013-04-28 02:47:00,57.7,50.9,29.71,SSE,157,0.0,0.0,78,0.00,,,0.00,WUHU21623XXSP,2013-04-28 06:47:00,
2013-04-28 02:52:00,57.7,50.9,29.71,SSE,157,0.0,0.0,78,0.00,,,0.00,WUHU21623XXSP,2013-04-28 06:52:00,
2013-04-28 02:57:00,57.6,50.7,29.70,SSE,157,0.0,0.0,78,0.00,,,0.00,WUHU21623XXSP,2013-04-28 06:57:00,
2013-04-28 03:02:00,57.4,50.5,29.70,SSE,157,0.0,0.0,78,0.00,,,0.00,WUHU21623XXSP,2013-04-28 07:02:00,
2013-04-28 03:07:00,57.4,50.5,29.70,SE,135,0.0,0.0,78,0.00,,,0.00,WUHU21623XXSP,2013-04-28 07:07:00,
2013-04-28 03:12:00,57.0,50.2,29.71,SE,135,0.0,0.0,78,0.00,,,0.00,WUHU21623XXSP,2013-04-28 07:12:00,
2013-04-28 03:17:00,57.0,50.2,29.71,SE,135,0.0,0.0,78,0.00,,,0.00,WUHU21623XXSP,2013-04-28 07:17:00,
2013-04-28 03:22:00,57.0,50.2,29.72,SE,135,0.0,0.0,78,0.00,,,0.00,WUHU21623XXSP,2013-04-28 07:22:00,
2013-04-28 03:27:00,57.0,50.2,29.73,SE,135,0.0,0.0,78,0.00,,,0.00,WUHU21623XXSP,2013-04-28 07:27:00,
2013-04-28 03:32:00,57.0,50.2,29.73,SE,135,0.0,0.0,78,0.00,,,0.00,WUHU21623XXSP,2013-04-28 07:32:00,
2013-04-28 03:37:00,57.0,50.2,29.73,SE,135,0.0,0.0,78,0.00,,,0.00,WUHU21623XXSP,2013-04-28 07:37:00,
2013-04-28 03:42:00,57.0,50.2,29.72,SE,135,0.0,0.0,78,0.00,,,0.00,WUHU21623XXSP,2013-04-28 07:42:00,
2013-04-28 03:47:00,57.0,50.2,29.72,SE,135,0.0,0.0,78,0.00,,,0.00,WUHU21623XXSP,2013-04-28 07:47:00,
2013-04-28 03:52:00,57.0,50.2,29.72,SE,135,0.0,0.0,78,0.00,,,0.00,WUHU21623XXSP,2013-04-28 07:52:00,
2013-04-28 03:57:00,57.0,50.2,29.72,SE,135,0.0,0.0,78,0.00,,,0.00,WUHU21623XXSP,2013-04-28 07:57:00,
2013-04-28 04:02:00,57.0,50.2,29.72,SE,135,0.0,0.0,78,0.00,,,0.00,WUHU21623XXSP,2013-04-28 08:02:00,
2013-04-28 04:07:00,57.0,50.2,29.72,SE,135,0.0,0.0,78,0.00,,,0.00,WUHU21623XXSP,2013-04-28 08:07:00,
2013-04-28 04:12:00,57.0,50.2,29.71,SE,135,0.0,0.0,78,0.00,,,0.00,WUHU21623XXSP,2013-04-28 08:12:00,
2013-04-28 04:17:00,57.2,50.4,29.70,SE,135,0.0,0.0,78,0.00,,,0.00,WUHU21623XXSP,2013-04-28 08:17:00,
2013-04-28 04:22:00,57.2,50.4,29.70,SE,135,0.0,0.0,78,0.00,,,0.00,WUHU21623XXSP,2013-04-28 08:22:00,
2013-04-28 04:27:00,57.2,50.0,29.70,SE,135,0.0,0.0,77,0.00,,,0.00,WUHU21623XXSP,2013-04-28 08:27:00,
2013-04-28 04:32:00,57.2,50.0,29.70,WSW,247,0.0,0.0,77,0.00,,,0.00,WUHU21623XXSP,2013-04-28 08:32:00,
2013-04-28 04:37:00,57.0,49.8,29.71,ESE,112,0.0,0.0,77,0.00,,,0.00,WUHU21623XXSP,2013-04-28 08:37:00,
2013-04-28 04:42:00,57.0,49.8,29.71,ESE,112,0.0,0.0,77,0.00,,,0.00,WUHU21623XXSP,2013-04-28 08:42:00,
2013-04-28 04:47:00,57.0,49.8,29.71,ESE,112,0.0,0.0,77,0.00,,,0.00,WUHU21623XXSP,2013-04-28 08:47:00,
2013-04-28 04:52:00,57.0,49.8,29.71,ESE,112,0.0,0.0,77,0.00,,,0.00,WUHU21623XXSP,2013-04-28 08:52:00,
2013-04-28 04:57:00,57.0,50.2,29.70,ESE,112,0.0,0.0,78,0.00,,,0.00,WUHU21623XXSP,2013-04-28 08:57:00,
2013-04-28 05:02:00,57.0,50.2,29.70,ESE,112,0.0,0.0,78,0.00,,,0.00,WUHU21623XXSP,2013-04-28 09:02:00,
2013-04-28 05:07:00,57.0,50.2,29.70,ESE,112,0.0,0.0,78,0.00,,,0.00,WUHU21623XXSP,2013-04-28 09:07:00,
2013-04-28 05:12:00,57.0,50.2,29.70,ESE,112,0.0,0.0,78,0.00,,,0.00,WUHU21623XXSP,2013-04-28 09:12:00,
2013-04-28 05:17:00,57.0,50.2,29.70,ESE,112,0.0,0.0,78,0.00,,,0.00,WUHU21623XXSP,2013-04-28 09:17:00,
2013-04-28 05:22:00,57.0,50.2,29.70,ESE,112,0.0,0.0,78,0.00,,,0.00,WUHU21623XXSP,2013-04-28 09:22:00,
2013-04-28 05:27:00,57.0,50.2,29.71,ESE,112,0.0,0.0,78,0.00,,,0.00,WUHU21623XXSP,2013-04-28 09:27:00,
2013-04-28 05:32:00,57.0,50.2,29.71,ESE,112,0.0,0.0,78,0.00,,,0.00,WUHU21623XXSP,2013-04-28 09:32:00,
2013-04-28 05:37:00,57.0,50.2,29.70,ESE,112,0.0,0.0,78,0.00,,,0.00,WUHU21623XXSP,2013-04-28 09:37:00,
2013-04-28 05:42:00,57.0,50.2,29.71,ESE,112,0.0,0.0,78,0.00,,,0.00,WUHU21623XXSP,2013-04-28 09:42:00,
2013-04-28 05:47:00,57.0,50.2,29.70,ESE,112,0.0,0.0,78,0.00,,,0.00,WUHU21623XXSP,2013-04-28 09:47:00,
2013-04-28 05:52:00,56.8,50.4,29.70,ESE,112,0.0,0.0,79,0.00,,,0.00,WUHU21623XXSP,2013-04-28 09:52:00,
2013-04-28 05:57:00,56.1,50.0,29.71,ESE,112,0.0,0.0,80,0.00,,,0.00,WUHU21623XXSP,2013-04-28 09:57:00,
2013-04-28 06:02:00,55.8,50.3,29.71,ESE,112,0.0,0.0,82,0.00,,,0.00,WUHU21623XXSP,2013-04-28 10:02:00,
2013-04-28 06:07:00,55.2,50.4,29.71,ESE,112,0.0,0.0,84,0.00,,,0.00,WUHU21623XXSP,2013-04-28 10:07:00,
2013-04-28 06:12:00,55.2,50.7,29.71,ESE,112,0.0,0.0,85,0.00,,,0.00,WUHU21623XXSP,2013-04-28 10:12:00,
2013-04-28 06:17:00,55.0,50.6,29.71,ESE,112,0.0,0.0,85,0.00,,,0.00,WUHU21623XXSP,2013-04-28 10:17:00,
2013-04-28 06:22:00,54.9,50.7,29.71,ESE,112,0.0,0.0,86,0.00,,,0.00,WUHU21623XXSP,2013-04-28 10:22:00,
2013-04-28 06:27:00,54.7,50.8,29.71,ESE,112,0.0,0.0,87,0.00,,,0.00,WUHU21623XXSP,2013-04-28 10:27:00,
2013-04-28 06:32:00,54.7,50.8,29.71,SE,135,0.0,0.0,87,0.00,,,0.00,WUHU21623XXSP,2013-04-28 10:32:00,
2013-04-28 06:37:00,54.7,50.8,29.70,SE,135,0.0,0.0,87,0.00,,,0.00,WUHU21623XXSP,2013-04-28 10:37:00,
2013-04-28 06:42:00,54.7,51.2,29.69,SSE,157,0.0,0.0,88,0.00,,,0.00,WUHU21623XXSP,2013-04-28 10:42:00,
2013-04-28 06:47:00,54.7,51.5,29.69,SSE,157,0.0,0.9,89,0.00,,,0.00,WUHU21623XXSP,2013-04-28 10:47:00,
2013-04-28 06:52:00,54.7,51.5,29.68,SSW,202,0.0,2.5,89,0.00,,,0.00,WUHU21623XXSP,2013-04-28 10:52:00,
2013-04-28 06:57:00,54.9,51.7,29.69,SSE,157,0.0,2.5,89,0.00,,,0.00,WUHU21623XXSP,2013-04-28 10:57:00,
2013-04-28 07:02:00,55.0,52.2,29.69,SE,135,0.0,0.0,90,0.00,,,0.00,WUHU21623XXSP,2013-04-28 11:02:00,
2013-04-28 07:07:00,55.0,52.2,29.69,SSW,202,0.0,0.0,90,0.00,,,0.00,WUHU21623XXSP,2013-04-28 11:07:00,
2013-04-28 07:12:00,55.2,52.3,29.70,SE,135,0.0,0.0,90,0.00,,,0.00,WUHU21623XXSP,2013-04-28 11:12:00,
2013-04-28 07:17:00,55.2,52.3,29.69,SE,135,0.0,0.0,90,0.00,,,0.00,WUHU21623XXSP,2013-04-28 11:17:00,
2013-04-28 07:22:00,55.4,52.5,29.69,SE,135,0.0,0.0,90,0.00,,,0.00,WUHU21623XXSP,2013-04-28 11:22:00,
2013-04-28 07:27:00,55.6,52.7,29.69,SE,135,0.0,0.0,90,0.00,,,0.00,WUHU21623XXSP,2013-04-28 11:27:00,
2013-04-28 07:32:00,55.6,52.7,29.68,SE,135,0.0,0.0,90,0.00,,,0.00,WUHU21623XXSP,2013-04-28 11:32:00,
2013-04-28 07:37:00,55.8,52.9,29.69,SSE,157,0.0,0.0,90,0.00,,,0.00,WUHU21623XXSP,2013-04-28 11:37:00,
2013-04-28 07:42:00,55.8,52.9,29.69,SE,135,0.0,3.6,90,0.00,,,0.00,WUHU21623XXSP,2013-04-28 11:42:00,
2013-04-28 07:47:00,55.9,53.1,29.70,SSE,157,0.0,3.6,90,0.00,,,0.00,WUHU21623XXSP,2013-04-28 11:47:00,
2013-04-28 07:52:00,56.1,53.2,29.70,SSE,157,0.0,0.0,90,0.00,,,0.00,WUHU21623XXSP,2013-04-28 11:52:00,
2013-04-28 07:57:00,56.1,53.2,29.71,SSE,157,0.0,0.0,90,0.00,,,0.00,WUHU21623XXSP,2013-04-28 11:57:00,
2013-04-28 08:02:00,56.1,53.2,29.71,SSE,157,0.0,0.0,90,0.00,,,0.00,WUHU21623XXSP,2013-04-28 12:02:00,
2013-04-28 08:07:00,56.3,53.4,29.71,SSE,157,0.0,0.0,90,0.00,,,0.00,WUHU21623XXSP,2013-04-28 12:07:00,
2013-04-28 08:12:00,56.5,53.6,29.71,SSE,157,0.0,0.0,90,0.00,,,0.00,WUHU21623XXSP,2013-04-28 12:12:00,
2013-04-28 08:17:00,56.5,53.6,29.71,SSE,157,0.0,0.0,90,0.00,,,0.00,WUHU21623XXSP,2013-04-28 12:17:00,
2013-04-28 08:22:00,56.5,53.6,29.71,SSE,157,0.0,0.0,90,0.00,,,0.00,WUHU21623XXSP,2013-04-28 12:22:00,
2013-04-28 08:27:00,56.5,53.6,29.71,SSE,157,0.0,0.0,90,0.00,,,0.00,WUHU21623XXSP,2013-04-28 12:27:00,
2013-04-28 08:32:00,56.8,54.0,29.71,SSE,157,0.0,0.0,90,0.00,,,0.00,WUHU21623XXSP,2013-04-28 12:32:00,
2013-04-28 08:37:00,56.8,54.0,29.71,SE,135,0.0,0.0,90,0.00,,,0.00,WUHU21623XXSP,2013-04-28 12:37:00,
2013-04-28 08:42:00,57.0,54.1,29.70,SSE,157,0.0,0.0,90,0.00,,,0.00,WUHU21623XXSP,2013-04-28 12:42:00,
2013-04-28 08:47:00,56.8,54.0,29.71,SSE,157,0.0,0.0,90,0.00,,,0.00,WUHU21623XXSP,2013-04-28 12:47:00,
2013-04-28 08:52:00,57.0,54.1,29.71,ESE,112,0.0,0.0,90,0.00,,,0.00,WUHU21623XXSP,2013-04-28 12:52:00,
2013-04-28 08:57:00,57.0,54.1,29.71,SE,135,0.0,0.0,90,0.00,,,0.00,WUHU21623XXSP,2013-04-28 12:57:00,
2013-04-28 09:02:00,57.4,54.5,29.71,SE,135,0.0,0.0,90,0.00,,,0.00,WUHU21623XXSP,2013-04-28 13:02:00,
2013-04-28 09:07:00,57.4,54.5,29.71,SE,135,0.0,0.0,90,0.00,,,0.00,WUHU21623XXSP,2013-04-28 13:07:00,
2013-04-28 09:12:00,57.4,54.5,29.71,SSW,202,0.0,0.0,90,0.00,,,0.00,WUHU21623XXSP,2013-04-28 13:12:00,
2013-04-28 09:17:00,57.7,54.9,29.71,SSE,157,0.0,0.0,90,0.00,,,0.00,WUHU21623XXSP,2013-04-28 13:17:00,
2013-04-28 09:22:00,57.7,54.9,29.71,ESE,112,0.0,0.0,90,0.00,,,0.00,WUHU21623XXSP,2013-04-28 13:22:00,
2013-04-28 09:27:00,57.9,55.0,29.71,SSE,157,0.0,0.0,90,0.00,,,0.00,WUHU21623XXSP,2013-04-28 13:27:00,
2013-04-28 09:32:00,58.1,55.2,29.71,SSW,202,0.0,0.0,90,0.00,,,0.00,WUHU21623XXSP,2013-04-28 13:32:00,
2013-04-28 09:37:00,58.1,55.2,29.71,SSE,157,0.0,0.0,90,0.00,,,0.00,WUHU21623XXSP,2013-04-28 13:37:00,
2013-04-28 09:42:00,58.1,55.2,29.71,SSE,157,0.0,0.0,90,0.00,,,0.00,WUHU21623XXSP,2013-04-28 13:42:00,
2013-04-28 09:47:00,58.3,55.4,29.70,SW,225,0.0,0.0,90,0.00,,,0.00,WUHU21623XXSP,2013-04-28 13:47:00,
2013-04-28 09:52:00,58.5,55.6,29.70,SSE,157,0.0,0.0,90,0.00,,,0.00,WUHU21623XXSP,2013-04-28 13:52:00,
2013-04-28 09:57:00,58.6,55.8,29.70,SE,135,0.0,0.7,90,0.00,,,0.00,WUHU21623XXSP,2013-04-28 13:57:00,
2013-04-28 10:02:00,58.8,55.9,29.70,SSE,157,0.0,0.7,90,0.00,,,0.00,WUHU21623XXSP,2013-04-28 14:02:00,
2013-04-28 10:07:00,58.8,55.9,29.70,SW,225,0.0,0.0,90,0.00,,,0.00,WUHU21623XXSP,2013-04-28 14:07:00,
2013-04-28 10:12:00,58.8,55.9,29.70,SSE,157,0.0,2.5,90,0.00,,,0.00,WUHU21623XXSP,2013-04-28 14:12:00,
2013-04-28 10:17:00,58.8,55.9,29.70,SE,135,0.0,2.5,90,0.00,,,0.00,WUHU21623XXSP,2013-04-28 14:17:00,
2013-04-28 10:22:00,58.8,55.9,29.70,SE,135,0.0,1.3,90,0.00,,,0.00,WUHU21623XXSP,2013-04-28 14:22:00,
2013-04-28 10:27:00,58.8,55.9,29.70,South,180,0.0,1.8,90,0.00,,,0.00,WUHU21623XXSP,2013-04-28 14:27:00,
2013-04-28 10:32:00,59.2,56.3,29.70,SSE,157,0.0,2.5,90,0.00,,,0.00,WUHU21623XXSP,2013-04-28 14:32:00,
2013-04-28 10:37:00,59.4,56.5,29.70,SE,135,0.0,4.5,90,0.00,,,0.00,WUHU21623XXSP,2013-04-28 14:37:00,
2013-04-28 10:42:00,59.4,56.5,29.70,SSE,157,2.2,5.4,90,0.00,,,0.00,WUHU21623XXSP,2013-04-28 14:42:00,
2013-04-28 10:47:00,59.5,56.7,29.70,SE,135,3.8,5.4,90,0.00,,,0.00,WUHU21623XXSP,2013-04-28 14:47:00,
2013-04-28 10:52:00,59.9,57.0,29.70,SSW,202,0.0,5.1,90,0.00,,,0.00,WUHU21623XXSP,2013-04-28 14:52:00,
2013-04-28 10:57:00,60.1,57.2,29.70,SSW,202,0.0,3.8,90,0.00,,,0.00,WUHU21623XXSP,2013-04-28 14:57:00,
2013-04-28 11:02:00,61.0,58.1,29.70,SE,135,0.0,3.4,90,0.00,,,0.00,WUHU21623XXSP,2013-04-28 15:02:00,
2013-04-28 11:07:00,61.7,58.8,29.70,SSE,157,0.0,3.6,90,0.00,,,0.00,WUHU21623XXSP,2013-04-28 15:07:00,
2013-04-28 11:12:00,62.4,59.8,29.70,SSE,157,0.0,4.0,91,0.00,,,0.00,WUHU21623XXSP,2013-04-28 15:12:00,
2013-04-28 11:17:00,63.0,60.1,29.70,SE,135,0.0,4.3,90,0.00,,,0.00,WUHU21623XXSP,2013-04-28 15:17:00,
2013-04-28 11:22:00,63.3,60.4,29.69,South,180,0.0,4.3,90,0.00,,,0.00,WUHU21623XXSP,2013-04-28 15:22:00,
2013-04-28 11:27:00,64.2,61.3,29.69,SE,135,0.0,6.9,90,0.00,,,0.00,WUHU21623XXSP,2013-04-28 15:27:00,
2013-04-28 11:32:00,64.8,61.8,29.69,SSE,157,0.0,6.9,90,0.00,,,0.00,WUHU21623XXSP,2013-04-28 15:32:00,
2013-04-28 11:37:00,65.7,62.3,29.69,SSE,157,0.0,5.8,89,0.00,,,0.00,WUHU21623XXSP,2013-04-28 15:37:00,
2013-04-28 11:42:00,66.6,62.5,29.69,ESE,112,0.0,5.8,87,0.00,,,0.00,WUHU21623XXSP,2013-04-28 15:42:00,
2013-04-28 11:47:00,68.4,63.7,29.68,WSW,247,0.0,4.9,85,0.00,,,0.00,WUHU21623XXSP,2013-04-28 15:47:00,
2013-04-28 11:52:00,68.7,63.0,29.68,SE,135,0.0,4.9,82,0.00,,,0.00,WUHU21623XXSP,2013-04-28 15:52:00,
2013-04-28 11:57:00,70.0,63.8,29.68,SSE,157,0.0,3.8,81,0.00,,,0.00,WUHU21623XXSP,2013-04-28 15:57:00,
2013-04-28 12:02:00,70.9,64.0,29.68,NNW,337,0.0,3.8,79,0.00,,,0.00,WUHU21623XXSP,2013-04-28 16:02:00,
2013-04-28 12:07:00,71.2,64.0,29.68,South,180,0.0,8.1,78,0.00,,,0.00,WUHU21623XXSP,2013-04-28 16:07:00,
2013-04-28 12:12:00,72.5,65.4,29.68,SSE,157,0.4,8.1,77,0.00,,,0.00,WUHU21623XXSP,2013-04-28 16:12:00,
2013-04-28 12:17:00,74.3,65.1,29.68,WNW,292,0.0,9.4,73,0.00,,,0.00,WUHU21623XXSP,2013-04-28 16:17:00,
2013-04-28 12:22:00,75.4,65.7,29.67,SSE,157,0.0,9.4,72,0.00,,,0.00,WUHU21623XXSP,2013-04-28 16:22:00,
2013-04-28 12:27:00,76.5,66.0,29.67,SSE,157,0.0,8.1,70,0.00,,,0.00,WUHU21623XXSP,2013-04-28 16:27:00,
2013-04-28 12:32:00,77.2,65.4,29.67,SSW,202,0.0,8.1,67,0.00,,,0.00,WUHU21623XXSP,2013-04-28 16:32:00,
2013-04-28 12:37:00,77.2,65.8,29.67,SSE,157,0.9,6.7,68,0.00,,,0.00,WUHU21623XXSP,2013-04-28 16:37:00,
2013-04-28 12:42:00,76.3,64.5,29.66,ESE,112,0.0,6.3,67,0.00,,,0.00,WUHU21623XXSP,2013-04-28 16:42:00,
2013-04-28 12:47:00,75.4,64.1,29.66,SE,135,0.0,10.5,68,0.00,,,0.00,WUHU21623XXSP,2013-04-28 16:47:00,
2013-04-28 12:52:00,75.4,64.5,29.65,SE,135,0.0,10.5,69,0.00,,,0.00,WUHU21623XXSP,2013-04-28 16:52:00,
2013-04-28 12:57:00,75.4,64.5,29.65,SE,135,1.6,8.7,69,0.00,,,0.00,WUHU21623XXSP,2013-04-28 16:57:00,
2013-04-28 13:02:00,75.7,64.8,29.65,SSW,202,1.6,8.7,69,0.00,,,0.00,WUHU21623XXSP,2013-04-28 17:02:00,
2013-04-28 13:07:00,76.1,64.8,29.64,SSE,157,1.6,6.0,68,0.00,,,0.00,WUHU21623XXSP,2013-04-28 17:07:00,
2013-04-28 13:12:00,77.4,65.1,29.64,South,180,0.0,6.0,66,0.00,,,0.00,WUHU21623XXSP,2013-04-28 17:12:00,
2013-04-28 13:17:00,77.5,64.8,29.65,WNW,292,0.0,6.0,65,0.00,,,0.00,WUHU21623XXSP,2013-04-28 17:17:00,
2013-04-28 13:22:00,78.6,65.4,29.65,SSW,202,0.0,4.7,64,0.00,,,0.00,WUHU21623XXSP,2013-04-28 17:22:00,
2013-04-28 13:27:00,79.0,65.3,29.64,SW,225,6.0,6.0,63,0.00,,,0.00,WUHU21623XXSP,2013-04-28 17:27:00,
2013-04-28 13:32:00,77.7,64.1,29.65,SSE,157,0.0,7.6,63,0.00,,,0.00,WUHU21623XXSP,2013-04-28 17:32:00,
2013-04-28 13:37:00,76.6,64.0,29.64,SE,135,0.4,7.6,65,0.00,,,0.00,WUHU21623XXSP,2013-04-28 17:37:00,
2013-04-28 13:42:00,75.9,63.3,29.64,South,180,0.0,8.3,65,0.00,,,0.00,WUHU21623XXSP,2013-04-28 17:42:00,
2013-04-28 13:47:00,75.6,63.8,29.64,SSW,202,0.0,8.3,67,0.00,,,0.00,WUHU21623XXSP,2013-04-28 17:47:00,
2013-04-28 13:52:00,75.2,63.5,29.64,SW,225,4.5,5.6,67,0.00,,,0.00,WUHU21623XXSP,2013-04-28 17:52:00,
2013-04-28 13:57:00,74.8,63.6,29.64,ENE,67,2.2,5.6,68,0.00,,,0.00,WUHU21623XXSP,2013-04-28 17:57:00,
2013-04-28 14:02:00,74.7,63.8,29.64,SSE,157,0.0,4.0,69,0.00,,,0.00,WUHU21623XXSP,2013-04-28 18:02:00,
2013-04-28 14:08:00,75.0,63.7,29.64,SSW,202,5.8,7.4,68,0.00,,,0.00,WUHU21623XXSP,2013-04-28 18:08:00,
2013-04-28 14:13:00,75.0,63.7,29.63,South,180,0.0,7.4,68,0.00,,,0.00,WUHU21623XXSP,2013-04-28 18:13:00,
2013-04-28 14:18:00,75.7,64.0,29.63,SSW,202,4.3,4.3,67,0.00,,,0.00,WUHU21623XXSP,2013-04-28 18:18:00,
2013-04-28 14:23:00,76.5,64.2,29.63,SW,225,2.2,4.9,66,0.00,,,0.00,WUHU21623XXSP,2013-04-28 18:23:00,
2013-04-28 14:28:00,77.9,65.2,29.63,SW,225,2.7,4.9,65,0.00,,,0.00,WUHU21623XXSP,2013-04-28 18:28:00,
2013-04-28 14:33:00,78.6,65.0,29.62,SSE,157,2.5,5.4,63,0.00,,,0.00,WUHU21623XXSP,2013-04-28 18:33:00,
2013-04-28 14:38:00,79.3,65.2,29.62,SE,135,0.0,5.4,62,0.00,,,0.00,WUHU21623XXSP,2013-04-28 18:38:00,
2013-04-28 14:43:00,79.0,64.9,29.62,SSW,202,1.6,6.7,62,0.00,,,0.00,WUHU21623XXSP,2013-04-28 18:43:00,
2013-04-28 14:48:00,78.4,64.4,29.61,SSE,157,0.0,6.7,62,0.00,,,0.00,WUHU21623XXSP,2013-04-28 18:48:00,
2013-04-28 14:53:00,78.3,64.6,29.61,SE,135,4.3,6.5,63,0.00,,,0.00,WUHU21623XXSP,2013-04-28 18:53:00,
2013-04-28 14:58:00,78.1,64.5,29.61,SSW,202,0.0,4.3,63,0.00,,,0.00,WUHU21623XXSP,2013-04-28 18:58:00,
2013-04-28 15:03:00,78.3,64.6,29.60,SE,135,2.2,5.1,63,0.00,,,0.00,WUHU21623XXSP,2013-04-28 19:03:00,
2013-04-28 15:08:00,77.5,63.5,29.60,SW,225,0.0,6.7,62,0.00,,,0.00,WUHU21623XXSP,2013-04-28 19:08:00,
2013-04-28 15:13:00,76.8,63.7,29.59,SSW,202,0.0,6.7,64,0.00,,,0.00,WUHU21623XXSP,2013-04-28 19:13:00,
2013-04-28 15:18:00,76.8,63.7,29.59,WNW,292,0.9,7.6,64,0.00,,,0.00,WUHU21623XXSP,2013-04-28 19:18:00,
2013-04-28 15:23:00,75.9,63.5,29.59,South,180,0.0,7.6,66,0.00,,,0.00,WUHU21623XXSP,2013-04-28 19:23:00,
2013-04-28 15:28:00,75.6,63.8,29.58,SSE,157,2.0,5.8,67,0.00,,,0.00,WUHU21623XXSP,2013-04-28 19:28:00,
2013-04-28 15:33:00,75.4,63.6,29.58,SE,135,0.0,5.8,67,0.00,,,0.00,WUHU21623XXSP,2013-04-28 19:33:00,
2013-04-28 15:38:00,75.4,63.6,29.58,SSE,157,0.0,5.8,67,0.00,,,0.00,WUHU21623XXSP,2013-04-28 19:38:00,
2013-04-28 15:43:00,75.7,64.0,29.58,SW,225,0.0,8.5,67,0.00,,,0.00,WUHU21623XXSP,2013-04-28 19:43:00,
2013-04-28 15:48:00,75.9,64.1,29.58,SW,225,2.7,8.5,67,0.00,,,0.00,WUHU21623XXSP,2013-04-28 19:48:00,
2013-04-28 15:53:00,75.9,63.7,29.58,SSW,202,0.0,6.3,66,0.00,,,0.00,WUHU21623XXSP,2013-04-28 19:53:00,
2013-04-28 15:58:00,76.1,64.3,29.57,SW,225,5.6,5.8,67,0.00,,,0.00,WUHU21623XXSP,2013-04-28 19:58:00,
2013-04-28 16:03:00,76.3,64.1,29.57,SW,225,0.0,7.4,66,0.00,,,0.00,WUHU21623XXSP,2013-04-28 20:03:00,
2013-04-28 16:08:00,76.5,64.2,29.57,South,180,0.0,7.4,66,0.00,,,0.00,WUHU21623XXSP,2013-04-28 20:08:00,
2013-04-28 16:13:00,76.3,64.1,29.56,SW,225,2.2,3.6,66,0.00,,,0.00,WUHU21623XXSP,2013-04-28 20:13:00,
2013-04-28 16:18:00,75.9,63.7,29.56,ESE,112,4.0,5.8,66,0.00,,,0.00,WUHU21623XXSP,2013-04-28 20:18:00,
2013-04-28 16:23:00,75.9,64.1,29.56,SSE,157,0.0,5.8,67,0.00,,,0.00,WUHU21623XXSP,2013-04-28 20:23:00,
2013-04-28 16:28:00,75.9,63.7,29.56,SSE,157,0.0,4.7,66,0.00,,,0.00,WUHU21623XXSP,2013-04-28 20:28:00,
2013-04-28 16:33:00,76.3,64.5,29.56,SSE,157,0.0,4.7,67,0.00,,,0.00,WUHU21623XXSP,2013-04-28 20:33:00,
2013-04-28 16:38:00,76.6,64.8,29.56,WNW,292,0.0,6.9,67,0.00,,,0.00,WUHU21623XXSP,2013-04-28 20:38:00,
2013-04-28 16:43:00,76.3,64.9,29.56,SE,135,4.7,7.8,68,0.00,,,0.00,WUHU21623XXSP,2013-04-28 20:43:00,
2013-04-28 16:48:00,75.7,64.0,29.56,SW,225,0.0,7.8,67,0.00,,,0.00,WUHU21623XXSP,2013-04-28 20:48:00,
2013-04-28 16:53:00,75.4,64.1,29.56,NE,45,0.0,7.2,68,0.00,,,0.00,WUHU21623XXSP,2013-04-28 20:53:00,
2013-04-28 16:58:00,74.3,63.5,29.56,SSE,157,0.0,8.5,69,0.00,,,0.00,WUHU21623XXSP,2013-04-28 20:58:00,
2013-04-28 17:03:00,73.6,63.7,29.55,SSW,202,0.0,8.5,71,0.00,,,0.00,WUHU21623XXSP,2013-04-28 21:03:00,
2013-04-28 17:08:00,73.2,63.7,29.55,SE,135,4.5,6.9,72,0.00,,,0.00,WUHU21623XXSP,2013-04-28 21:08:00,
2013-04-28 17:13:00,73.0,63.9,29.55,SSE,157,0.0,5.4,73,0.00,,,0.00,WUHU21623XXSP,2013-04-28 21:13:00,
2013-04-28 17:18:00,72.3,63.6,29.55,SE,135,0.0,4.7,74,0.00,,,0.00,WUHU21623XXSP,2013-04-28 21:18:00,
2013-04-28 17:23:00,71.8,63.0,29.55,South,180,0.0,3.8,74,0.00,,,0.00,WUHU21623XXSP,2013-04-28 21:23:00,
2013-04-28 17:28:00,71.4,63.0,29.55,SSE,157,0.0,4.7,75,0.00,,,0.00,WUHU21623XXSP,2013-04-28 21:28:00,
2013-04-28 17:33:00,71.1,63.1,29.55,SE,135,4.3,5.6,76,0.00,,,0.00,WUHU21623XXSP,2013-04-28 21:33:00,
2013-04-28 17:38:00,70.7,62.9,29.55,SE,135,0.2,5.6,77,0.00,,,0.00,WUHU21623XXSP,2013-04-28 21:38:00,
2013-04-28 17:43:00,70.3,63.1,29.54,West,270,1.3,7.2,78,0.00,,,0.00,WUHU21623XXSP,2013-04-28 21:43:00,
2013-04-28 17:48:00,68.7,62.7,29.55,SW,225,6.5,7.2,81,0.00,,,0.00,WUHU21623XXSP,2013-04-28 21:48:00,
2013-04-28 17:53:00,67.3,62.0,29.56,SW,225,0.0,6.7,83,0.00,,,0.00,WUHU21623XXSP,2013-04-28 21:53:00,
2013-04-28 17:58:00,66.4,61.4,29.56,SW,225,0.0,5.6,84,0.00,,,0.00,WUHU21623XXSP,2013-04-28 21:58:00,
2013-04-28 18:03:00,65.8,61.2,29.56,SSE,157,0.0,4.9,85,0.00,,,0.00,WUHU21623XXSP,2013-04-28 22:03:00,
2013-04-28 18:08:00,65.5,61.5,29.55,SE,135,0.0,5.1,87,0.00,,,0.00,WUHU21623XXSP,2013-04-28 22:08:00,
2013-04-28 18:13:00,65.1,61.2,29.55,NW,315,0.0,5.1,87,0.00,,,0.00,WUHU21623XXSP,2013-04-28 22:13:00,
2013-04-28 18:18:00,64.9,61.3,29.55,SSE,157,0.0,4.7,88,0.00,,,0.00,WUHU21623XXSP,2013-04-28 22:18:00,
2013-04-28 18:23:00,64.6,61.0,29.56,SSE,157,0.0,4.7,88,0.00,,,0.00,WUHU21623XXSP,2013-04-28 22:23:00,
2013-04-28 18:28:00,64.6,61.3,29.56,South,180,0.0,0.0,89,0.00,,,0.00,WUHU21623XXSP,2013-04-28 22:28:00,
2013-04-28 18:33:00,64.2,61.0,29.55,SE,135,0.0,0.0,89,0.00,,,0.00,WUHU21623XXSP,2013-04-28 22:33:00,
2013-04-28 18:38:00,64.2,61.0,29.55,South,180,0.0,0.0,89,0.00,,,0.00,WUHU21623XXSP,2013-04-28 22:38:00,
2013-04-28 18:43:00,64.0,60.8,29.55,SSE,157,0.0,3.1,89,0.00,,,0.00,WUHU21623XXSP,2013-04-28 22:43:00,
2013-04-28 18:48:00,64.0,60.8,29.55,SSW,202,0.0,3.1,89,0.00,,,0.00,WUHU21623XXSP,2013-04-28 22:48:00,
2013-04-28 18:53:00,63.9,60.6,29.54,SE,135,0.0,0.0,89,0.00,,,0.00,WUHU21623XXSP,2013-04-28 22:53:00,
2013-04-28 18:58:00,63.7,60.8,29.54,SE,135,0.0,0.0,90,0.00,,,0.00,WUHU21623XXSP,2013-04-28 22:58:00,
2013-04-28 19:03:00,63.7,60.8,29.54,ESE,112,0.0,0.0,90,0.00,,,0.00,WUHU21623XXSP,2013-04-28 23:03:00,
2013-04-28 19:08:00,63.7,60.8,29.53,SSE,157,0.0,0.0,90,0.00,,,0.00,WUHU21623XXSP,2013-04-28 23:08:00,
2013-04-28 19:13:00,63.7,60.8,29.54,SSE,157,0.0,0.0,90,0.00,,,0.00,WUHU21623XXSP,2013-04-28 23:13:00,
2013-04-28 19:18:00,63.7,60.8,29.54,SSE,157,0.0,0.0,90,0.00,,,0.00,WUHU21623XXSP,2013-04-28 23:18:00,
2013-04-28 19:23:00,63.7,60.8,29.54,South,180,0.0,0.0,90,0.00,,,0.00,WUHU21623XXSP,2013-04-28 23:23:00,
2013-04-28 19:28:00,63.9,61.0,29.54,South,180,0.0,0.0,90,0.00,,,0.00,WUHU21623XXSP,2013-04-28 23:28:00,
2013-04-28 19:33:00,64.0,61.2,29.56,South,180,0.0,0.0,90,0.00,,,0.00,WUHU21623XXSP,2013-04-28 23:33:00,
2013-04-28 19:38:00,64.0,61.2,29.56,South,180,0.0,0.0,90,0.00,,,0.00,WUHU21623XXSP,2013-04-28 23:38:00,
2013-04-28 19:43:00,64.0,61.2,29.56,South,180,0.0,0.0,90,0.00,,,0.00,WUHU21623XXSP,2013-04-28 23:43:00,
2013-04-28 19:48:00,63.9,61.0,29.55,South,180,0.0,0.0,90,0.00,,,0.00,WUHU21623XXSP,2013-04-28 23:48:00,
2013-04-28 19:53:00,63.7,60.8,29.55,North,0,0.0,2.7,90,0.00,,,0.00,WUHU21623XXSP,2013-04-28 23:53:00,
2013-04-28 19:58:00,63.7,60.8,29.55,ESE,112,0.0,2.7,90,0.00,,,0.00,WUHU21623XXSP,2013-04-28 23:58:00,
2013-04-28 20:03:00,63.3,60.4,29.56,ESE,112,0.0,2.5,90,0.00,,,0.00,WUHU21623XXSP,2013-04-29 00:03:00,
2013-04-28 20:08:00,63.3,60.4,29.57,NNE,22,0.0,0.4,90,0.06,,,0.06,WUHU21623XXSP,2013-04-29 00:08:00,
2013-04-28 20:13:00,62.8,59.9,29.55,NE,45,0.0,1.1,90,0.41,,,0.41,WUHU21623XXSP,2013-04-29 00:13:00,
2013-04-28 20:18:00,62.4,59.5,29.57,NE,45,0.0,1.1,90,0.45,,,0.45,WUHU21623XXSP,2013-04-29 00:18:00,
2013-04-28 20:23:00,62.2,59.4,29.58,NE,45,0.0,0.0,90,0.49,,,0.49,WUHU21623XXSP,2013-04-29 00:23:00,
2013-04-28 20:28:00,61.9,59.0,29.58,NE,45,0.0,0.0,90,0.51,,,0.51,WUHU21623XXSP,2013-04-29 00:28:00,
2013-04-28 20:33:00,61.5,58.6,29.59,NE,45,0.0,0.0,90,0.55,,,0.55,WUHU21623XXSP,2013-04-29 00:33:00,
2013-04-28 20:38:00,61.5,58.6,29.61,NE,45,0.0,0.0,90,0.55,,,0.55,WUHU21623XXSP,2013-04-29 00:38:00,
2013-04-28 20:43:00,61.3,58.5,29.61,NE,45,0.0,0.0,90,0.61,,,0.61,WUHU21623XXSP,2013-04-29 00:43:00,
2013-04-28 20:48:00,61.2,57.9,29.60,NE,45,0.0,0.0,89,0.65,,,0.66,WUHU21623XXSP,2013-04-29 00:48:00,
2013-04-28 20:53:00,61.0,57.8,29.59,NE,45,0.0,0.0,89,0.65,,,0.66,WUHU21623XXSP,2013-04-29 00:53:00,
2013-04-28 20:58:00,60.6,57.4,29.59,NE,45,0.0,0.0,89,0.65,,,0.66,WUHU21623XXSP,2013-04-29 00:58:00,
2013-04-28 21:03:00,60.6,57.4,29.58,NE,45,0.0,0.0,89,0.63,,,0.66,WUHU21623XXSP,2013-04-29 01:03:00,
2013-04-28 21:08:00,60.4,57.2,29.57,NE,45,0.0,0.0,89,0.41,,,0.66,WUHU21623XXSP,2013-04-29 01:08:00,
2013-04-28 21:13:00,60.4,57.2,29.57,ESE,112,0.0,0.0,89,0.24,,,0.66,WUHU21623XXSP,2013-04-29 01:13:00,
2013-04-28 21:18:00,60.1,56.9,29.58,ESE,112,0.0,0.0,89,0.20,,,0.66,WUHU21623XXSP,2013-04-29 01:18:00,
2013-04-28 21:24:00,60.1,56.9,29.59,ESE,112,0.0,0.0,89,0.14,,,0.66,WUHU21623XXSP,2013-04-29 01:24:00,
2013-04-28 21:29:00,59.9,56.4,29.59,ESE,112,0.0,0.0,88,0.12,,,0.66,WUHU21623XXSP,2013-04-29 01:29:00,
2013-04-28 21:34:00,59.7,56.2,29.59,ESE,112,0.0,0.0,88,0.10,,,0.66,WUHU21623XXSP,2013-04-29 01:34:00,
2013-04-28 21:39:00,59.7,56.2,29.59,ESE,112,0.0,0.0,88,0.08,,,0.66,WUHU21623XXSP,2013-04-29 01:39:00,
2013-04-28 21:44:00,59.7,56.2,29.59,ESE,112,0.0,0.0,88,0.04,,,0.66,WUHU21623XXSP,2013-04-29 01:44:00,
2013-04-28 21:49:00,59.5,56.0,29.59,ESE,112,0.0,0.0,88,0.00,,,0.66,WUHU21623XXSP,2013-04-29 01:49:00,
2013-04-28 21:54:00,59.5,56.0,29.59,ESE,112,0.0,0.0,88,0.00,,,0.66,WUHU21623XXSP,2013-04-29 01:54:00,
2013-04-28 21:59:00,59.5,55.7,29.60,SSE,157,0.0,0.0,87,0.00,,,0.66,WUHU21623XXSP,2013-04-29 01:59:00,
2013-04-28 22:04:00,59.5,55.7,29.59,SSE,157,0.0,0.0,87,0.00,,,0.66,WUHU21623XXSP,2013-04-29 02:04:00,
2013-04-28 22:09:00,59.5,55.7,29.59,SSE,157,0.0,0.0,87,0.00,,,0.66,WUHU21623XXSP,2013-04-29 02:09:00,
2013-04-28 22:14:00,59.5,55.7,29.59,SSE,157,0.0,0.0,87,0.00,,,0.66,WUHU21623XXSP,2013-04-29 02:14:00,
2013-04-28 22:19:00,59.5,55.7,29.59,SSE,157,0.0,0.0,87,0.00,,,0.66,WUHU21623XXSP,2013-04-29 02:19:00,
2013-04-28 22:24:00,59.5,55.7,29.59,SSE,157,0.0,0.0,87,0.00,,,0.66,WUHU21623XXSP,2013-04-29 02:24:00,
2013-04-28 22:29:00,59.5,55.7,29.59,SSE,157,0.0,0.0,87,0.00,,,0.66,WUHU21623XXSP,2013-04-29 02:29:00,
2013-04-28 22:34:00,59.5,55.7,29.59,SSE,157,0.0,0.0,87,0.00,,,0.66,WUHU21623XXSP,2013-04-29 02:34:00,
2013-04-28 22:39:00,59.5,55.9,29.60,SSE,157,0.0,0.0,87,0.00,,,0.66,WUHU21623XXSP,2013-04-29 02:39:00,
2013-04-28 22:44:00,59.5,55.7,29.60,SSE,157,0.0,0.0,87,0.00,,,0.66,WUHU21623XXSP,2013-04-29 02:44:00,
2013-04-28 22:49:00,59.7,55.9,29.60,SSE,157,0.0,0.0,87,0.00,,,0.66,WUHU21623XXSP,2013-04-29 02:49:00,
2013-04-28 22:54:00,59.7,55.5,29.60,SSE,157,0.0,0.0,86,0.02,,,0.68,WUHU21623XXSP,2013-04-29 02:54:00,
2013-04-28 22:59:00,59.7,55.5,29.60,SSE,157,0.0,0.0,86,0.04,,,0.70,WUHU21623XXSP,2013-04-29 02:59:00,
2013-04-28 23:04:00,59.7,55.5,29.60,SSE,157,0.0,0.0,86,0.10,,,0.76,WUHU21623XXSP,2013-04-29 03:04:00,
2013-04-28 23:09:00,59.7,55.5,29.61,SSE,157,0.0,0.0,86,0.12,,,0.78,WUHU21623XXSP,2013-04-29 03:09:00,
2013-04-28 23:14:00,59.7,55.5,29.61,SSE,157,0.0,0.0,86,0.16,,,0.82,WUHU21623XXSP,2013-04-29 03:14:00,
2013-04-28 23:19:00,59.7,55.5,29.61,SSE,157,0.0,0.0,86,0.20,,,0.86,WUHU21623XXSP,2013-04-29 03:19:00,
2013-04-28 23:24:00,59.9,55.7,29.61,SSE,157,0.0,0.0,86,0.20,,,0.86,WUHU21623XXSP,2013-04-29 03:24:00,
2013-04-28 23:29:00,59.7,55.5,29.60,SSE,157,0.0,0.0,86,0.20,,,0.86,WUHU21623XXSP,2013-04-29 03:29:00,
2013-04-28 23:34:00,59.7,55.2,29.60,SSE,157,0.0,0.0,85,0.20,,,0.86,WUHU21623XXSP,2013-04-29 03:34:00,
2013-04-28 23:39:00,59.7,55.2,29.59,SSE,157,0.0,0.0,85,0.20,,,0.86,WUHU21623XXSP,2013-04-29 03:39:00,
2013-04-28 23:44:00,59.7,55.2,29.60,SSE,157,0.0,0.0,85,0.20,,,0.86,WUHU21623XXSP,2013-04-29 03:44:00,
2013-04-28 23:49:00,59.7,55.2,29.60,SSE,157,0.0,0.0,85,0.18,,,0.86,WUHU21623XXSP,2013-04-29 03:49:00,
2013-04-28 23:54:00,59.5,55.0,29.60,SSE,157,0.0,0.0,85,0.18,,,0.86,WUHU21623XXSP,2013-04-29 03:54:00,
2013-04-28 23:59:00,59.7,55.2,29.60,SSE,157,0.0,0.0,85,0.16,,,0.86,WUHU21623XXSP,2013-04-29 03:59:00,